EW1795 Weather Reports


time (UTC)temp
F
wind
direction
speed
knots
gust
knots
rain 1hr
in
rain 24hr
in
rain mn
in
humidity
%
barometer
mb
20260502204550 62 2 6.1 15.6 0.00 0.00 0.00 35 1009.1
20260502203048 63 286 4.3 13.0 0.00 0.00 0.00 35 1009.2
20260502201545 63 259 2.6 11.3 0.00 0.00 0.00 34 1009.3
20260502200142 63 289 6.1 13.0 0.00 0.00 0.00 32 1009.4
20260502194549 64 250 6.1 15.6 0.00 0.00 0.00 33 1009.7
20260502193057 64 330 3.5 11.3 0.00 0.00 0.00 32 1009.8
20260502191548 63 259 1.7 9.6 0.00 0.00 0.00 34 1010.0
20260502190004 62 322 4.3 10.4 0.00 0.00 0.00 33 1010.5
20260502184501 62 264 4.3 12.2 0.00 0.00 0.00 33 1010.7
20260502183059 62 238 3.5 8.7 0.00 0.00 0.00 34 1010.8
20260502181557 60 283 2.6 10.4 0.00 0.00 0.00 34 1011.1
20260502180155 60 315 2.6 11.3 0.00 0.00 0.00 35 1011.4
20260502170150 58 143 4.3 15.6 0.00 0.00 0.00 36 1012.2
20260502163051 57 151 7.8 11.3 0.00 0.00 0.00 36 1012.8
20260502161611 57 165 5.2 11.3 0.00 0.00 0.00 36 1013.1
20260502160145 55 185 4.3 10.4 0.00 0.00 0.00 37 1013.3
20260502151544 53 168 3.5 9.6 0.00 0.00 0.00 38 1014.2
20260502150143 52 176 5.2 10.4 0.00 0.00 0.00 40 1014.6
20260502123126 38 187 0.0 2.6 0.00 0.00 0.00 66 1016.5
20260502121554 37 143 0.0 0.9 0.00 0.00 0.00 67 1016.6
20260502120151 35 166 0.0 0.9 0.00 0.00 0.00 70 1016.8
20260502114557 34 188 0.0 0.9 0.00 0.00 0.00 70 1017.0
20260502113051 34 187 0.0 1.7 0.00 0.00 0.00 70 1017.1
20260502111552 33 238 0.0 1.7 0.00 0.00 0.00 71 1017.1
20260502110148 33 155 0.0 0.9 0.00 0.00 0.00 69 1017.1
20260502104553 33 242 0.0 2.6 0.00 0.00 0.00 67 1017.2
20260502103049 32 195 0.0 1.7 0.00 0.00 0.00 68 1017.4
20260502101554 31 158 0.0 0.9 0.00 0.00 0.00 71 1017.5
20260502100143 31 158 0.0 1.7 0.00 0.00 0.00 73 1017.6
20260502070151 29 158 0.0 0.0 0.00 0.00 0.00 81 1018.6
20260502064555 30 158 0.0 0.0 0.00 0.00 0.00 79 1018.7
20260502063059 30 158 0.0 0.0 0.00 0.00 0.00 78 1018.7
20260502061551 30 158 0.0 0.0 0.00 0.00 0.00 75 1018.7
20260502060150 30 36 0.0 0.0 0.00 0.00 0.00 81 1018.8
20260502054553 31 36 0.0 0.0 0.00 0.00 0.00 74 1018.8
20260502053050 31 36 0.0 0.0 0.00 0.00 0.00 76 1019.0
20260502051551 31 36 0.0 0.0 0.00 0.00 0.00 71 1019.2
20260502044546 32 36 0.0 0.0 0.00 0.00 0.00 73 1019.2
20260502043050 32 36 0.0 0.0 0.00 0.00 0.00 73 1019.2
20260502041548 32 36 0.0 0.0 0.00 0.00 0.00 67 1019.2
20260502040148 33 36 0.0 0.0 0.00 0.00 0.00 67 1019.3
20260502034541 35 36 0.0 0.0 0.00 0.00 0.00 64 1019.4
20260502033045 35 36 0.0 0.0 0.00 0.00 0.00 73 1019.4
20260502031540 34 36 0.0 0.0 0.00 0.00 0.00 64 1019.5
20260502030138 35 36 0.0 0.0 0.00 0.00 0.00 61 1019.6
20260502024611 38 36 0.0 0.0 0.00 0.00 0.00 58 1019.6
20260502023057 39 36 0.0 0.0 0.00 0.00 0.00 48 1019.6
20260502021605 41 36 0.0 0.0 0.00 0.00 0.00 47 1019.5
20260502020156 43 36 0.0 0.0 0.00 0.00 0.00 43 1019.5
20260502014555 45 36 0.0 0.9 0.00 0.00 0.00 41 1019.5
20260502013054 46 26 0.0 4.3 0.00 0.00 0.00 38 1019.4
20260502011554 47 39 0.9 5.2 0.00 0.00 0.00 36 1019.3
20260502010153 48 58 1.7 3.5 0.00 0.00 0.00 34 1019.2
20260502004600 49 36 4.3 7.0 0.00 0.00 0.00 34 1019.4
20260502003050 49 41 1.7 7.0 0.00 0.00 0.00 33 1019.5
20260502001549 49 48 5.2 9.6 0.00 0.00 0.00 32 1019.2
20260502000151 50 45 4.3 8.7 0.00 0.00 0.00 33 1019.4
20260501234548 50 331 7.0 12.2 0.00 0.00 0.00 31 1019.4
20260501233050 51 324 9.6 16.5 0.00 0.00 0.00 31 1019.3
20260501231547 51 338 5.2 12.2 0.00 0.00 0.00 31 1019.4
20260501230146 51 353 6.1 11.3 0.00 0.00 0.00 30 1019.2
20260501224550 51 342 5.2 14.8 0.00 0.00 0.00 30 1019.3
20260501223047 52 342 3.5 15.6 0.00 0.00 0.00 30 1019.3
20260501221544 51 25 3.5 13.0 0.00 0.00 0.00 30 1019.2
20260501220142 51 340 4.3 14.8 0.00 0.00 0.00 32 1019.3
20260501214702 50 7 4.3 14.8 0.00 0.00 0.00 32 1019.4
20260501213059 49 306 4.3 9.6 0.00 0.00 0.00 34 1019.5
20260501211607 50 325 6.1 15.6 0.00 0.00 0.00 31 1019.5
20260501210158 51 283 5.2 16.5 0.00 0.00 0.00 31 1019.5